Peoria, IL

11:53 PM CDT on September 15, 2019 (GMT -0500)
Greater Peoria Regional

Weather History for KPIA - August, 2019

Change the Weather History Date:

Thursday, August 22, 2019

  Actual Average Record
Temperature  
Mean Temperature 74 °F 73 °F  
Max Temperature 82 °F 84 °F 102 °F (1936)
Min Temperature 66 °F 63 °F 46 °F (1923)
Degree Days  
Heating Degree Days 0 0  
Month to date heating degree days 0 0  
Since 1 June heating degree days 5 19  
Since 1 July heating degree days 0 1  
Cooling Degree Days 9 9  
Month to date cooling degree days 230 207  
Year to date cooling degree days 942 838  
Since 1 June cooling degree days 861 757  
Growing Degree Days 24 (Base 50)    
Moisture  
Dew Point 62 °F    
Average Humidity 67    
Maximum Humidity 90    
Minimum Humidity 45    
Precipitation  
Precipitation 0.00 in 0.10 in 1.61 in (1917)
Month to date precipitation 3.08 2.28  
Year to date precipitation 32.76 23.99  
Snow  
Snow 0.00 in 0.00 in 0.00 in ()
Month to date snowfall 0.0 0.0  
Since 1 June snowfall 0.0 0.0  
Since 1 July snowfall 0.0 0.0  
Snow Depth 0.00 in    
Sea Level Pressure  
Sea Level Pressure 29.99 in    
Wind  
Wind Speed 4 mph ()    
Max Wind Speed 14 mph    
Max Gust Speed 20 mph    
Visibility 10.0 miles    
Events      
T = Trace of Precipitation, MM = Missing Value Source: Averaged Metar Reports

Daily Weather History Graph

Daily Weather History Graph

Search for Another Location

Airport or City:

Astronomy

Aug. 22, 2019 Rise Set
Actual Time 6:15 AM CDT 7:46 PM CDT
Civil Twilight 5:47 AM CDT 8:15 PM CDT
Nautical Twilight 5:12 AM CDT 8:50 PM CDT
Astronomical Twilight 4:35 AM CDT 9:26 PM CDT
Moon 11:34 PM CDT (8/22) 12:53 PM CDT (8/22)
Length of Visible Light 14h 28m
Length of Day
13h 30m
Waning Gibbous, 59% of the Moon is Illuminated
Aug 22
Waning Gibbous
Aug 23
Last Quarter
Aug 30
New
Sep 5
First Quarter
Sep 13
Full

Hourly Weather History & Observations

Time (CDT) Temp. Heat Index Dew Point Humidity Pressure Visibility Wind Dir Wind Speed Gust Speed Precip Events Conditions
12:54 AM 73.0 °F - 68.0 °F 84% 29.98 in 10.0 mi Calm Calm - N/A   Mostly Cloudy
1:54 AM 72.0 °F - 68.0 °F 87% 29.98 in 10.0 mi North 3.5 mph - N/A   Overcast
2:54 AM 71.1 °F - 66.9 °F 87% 29.97 in 10.0 mi North 3.5 mph - N/A   Overcast
3:54 AM 71.1 °F - 66.0 °F 84% 29.96 in 10.0 mi Calm Calm - N/A   Overcast
4:54 AM 70.0 °F - 66.0 °F 87% 29.96 in 10.0 mi NNW 3.5 mph - N/A   Scattered Clouds
5:54 AM 69.1 °F - 64.9 °F 87% 29.96 in 10.0 mi North 3.5 mph - N/A   Clear
6:54 AM 68.0 °F - 64.0 °F 87% 29.98 in 10.0 mi North 3.5 mph - N/A   Partly Cloudy
7:54 AM 70.0 °F - 64.0 °F 81% 29.98 in 10.0 mi NNE 4.6 mph - N/A   Clear
8:54 AM 73.0 °F - 63.0 °F 71% 29.99 in 10.0 mi NE 5.8 mph - N/A   Clear
9:54 AM 75.0 °F - 62.1 °F 64% 30.00 in 10.0 mi NNE 5.8 mph - N/A   Partly Cloudy
10:54 AM 78.1 °F - 62.1 °F 58% 30.01 in 10.0 mi NNE 4.6 mph - N/A   Clear
11:54 AM 79.0 °F - 59.0 °F 50% 30.01 in 10.0 mi North 8.1 mph - N/A   Clear
12:54 PM 81.0 °F 81.6 °F 60.1 °F 49% 30.00 in 10.0 mi North 5.8 mph - N/A   Clear
1:54 PM 81.0 °F 81.3 °F 59.0 °F 47% 29.99 in 10.0 mi North 5.8 mph - N/A   Clear
2:54 PM 81.0 °F 81.3 °F 59.0 °F 47% 29.97 in 10.0 mi NNW 6.9 mph - N/A   Clear
3:54 PM 82.0 °F 82.1 °F 59.0 °F 45% 29.97 in 10.0 mi Variable 4.6 mph - N/A   Clear
4:54 PM 81.0 °F 81.3 °F 59.0 °F 47% 29.97 in 10.0 mi Variable 5.8 mph - N/A   Clear
5:54 PM 80.1 °F 80.6 °F 57.9 °F 47% 29.98 in 10.0 mi NNE 6.9 mph - N/A   Clear
6:54 PM 77.0 °F - 59.0 °F 54% 29.98 in 10.0 mi North 3.5 mph - N/A   Clear
7:54 PM 73.0 °F - 59.0 °F 61% 29.98 in 10.0 mi North 3.5 mph - N/A   Clear
8:54 PM 71.1 °F - 59.0 °F 66% 30.01 in 10.0 mi NNE 4.6 mph - N/A   Clear
9:54 PM 70.0 °F - 60.1 °F 71% 30.03 in 10.0 mi NE 10.4 mph - N/A   Clear
10:54 PM 69.1 °F - 59.0 °F 70% 30.04 in 10.0 mi ENE 9.2 mph - N/A   Clear
11:54 PM 66.9 °F - 55.9 °F 68% 30.06 in 10.0 mi ENE 9.2 mph - N/A   Clear